Nashville, TN

8:31 PM CDT on September 25, 2017 (GMT -0500)
Nashville International

Weather History for KBNA - February, 2014

Change the Weather History Date:

Sunday, February 2, 2014

  Actual Average Record
Temperature  
Mean Temperature 47 °F 39 °F  
Max Temperature 59 °F 49 °F 75 °F (2016)
Min Temperature 34 °F 29 °F -13 °F (1951)
Degree Days  
Heating Degree Days 18    
Month to date heating degree days 30  
Since 1 July heating degree days 2501  
Cooling Degree Days 0    
Month to date cooling degree days 0  
Year to date cooling degree days 0  
Moisture  
Dew Point 38 °F    
Average Humidity 79    
Maximum Humidity 96    
Minimum Humidity 61    
Precipitation  
Precipitation 1.58 in 0.14 in 1.66 in (1939)
Month to date precipitation 1.58 0.28  
Year to date precipitation 4.19 4.03  
Snow  
Snow 0.00 in - 6.50 in (1886)
Month to date snowfall 0.0  
Since 1 July snowfall 1.3  
Snow Depth 0.00 in    
Sea Level Pressure  
Sea Level Pressure 30.05 in    
Wind  
Wind Speed 11 mph (NNW)    
Max Wind Speed 29 mph    
Max Gust Speed 38 mph    
Visibility 7 miles    
Events Rain    
T = Trace of Precipitation, MM = Missing Value Source: NWS Daily Summary

Daily Weather History Graph

Daily Weather History Graph

Search for Another Location

Airport or City:

Trip Planner

Search our weather history database for the weather conditions in past years. The results will help you decide how hot, cold, wet, or windy it might be!

Date:

Astronomy

Feb. 02, 2014 Rise Set
Actual Time 6:46 AM CST 5:14 PM CST
Civil Twilight 6:19 AM CST 5:41 PM CST
Nautical Twilight 5:49 AM CST 6:12 PM CST
Astronomical Twilight 5:19 AM CST 6:42 PM CST
Moon 8:20 AM CST (2/2) 8:49 PM CST (2/2)
Length of Visible Light 11h 21m
Length of Day
10h 27m
Waxing Crescent, 11% of the Moon is Illuminated
Feb 2
Waxing Crescent
Feb 6
First Quarter
Feb 14
Full
Feb 22
Last Quarter
Mar 1
New

Hourly Weather History & Observations

Time (CST) Temp. Windchill Dew Point Humidity Pressure Visibility Wind Dir Wind Speed Gust Speed Precip Events Conditions
12:53 AM 55.9 °F - 44.1 °F 64% 29.95 in 10.0 mi South 10.4 mph - N/A   Overcast
1:53 AM 55.9 °F - 44.1 °F 64% 29.93 in 10.0 mi South 8.1 mph - N/A   Overcast
2:53 AM 57.0 °F - 46.0 °F 67% 29.92 in 10.0 mi South 13.8 mph 21.9 mph N/A   Overcast
3:53 AM 57.9 °F - 46.9 °F 67% 29.92 in 10.0 mi SSW 13.8 mph - N/A   Overcast
4:53 AM 57.9 °F - 48.0 °F 70% 29.92 in 10.0 mi South 17.3 mph 24.2 mph N/A   Overcast
5:38 AM 57.2 °F - 48.2 °F 72% 29.96 in 10.0 mi West 6.9 mph - N/A   Overcast
5:53 AM 57.9 °F - 48.9 °F 72% 29.99 in 9.0 mi West 10.4 mph - N/A   Overcast
6:15 AM 44.6 °F 38.8 °F 42.8 °F 93% 30.03 in 5.0 mi NNW 11.5 mph 27.6 mph 0.02 in   Overcast
6:24 AM 44.6 °F 41.4 °F 42.8 °F 93% 30.03 in 7.0 mi NNW 5.8 mph - 0.02 in Rain Light Rain
6:50 AM 44.6 °F 40.2 °F 42.8 °F 93% 30.05 in 2.5 mi NW 8.1 mph - 0.05 in Rain Rain
6:53 AM 44.1 °F 37.7 °F 42.1 °F 93% 30.05 in 2.5 mi NW 12.7 mph - 0.06 in Rain Rain
7:21 AM 42.8 °F - 39.2 °F 87% 30.04 in 10.0 mi Calm Calm - 0.04 in Rain Light Rain
7:43 AM 42.8 °F - 39.2 °F 87% 30.05 in 10.0 mi Calm Calm - 0.04 in   Overcast
7:53 AM 43.0 °F 38.8 °F 39.9 °F 89% 30.06 in 10.0 mi NW 6.9 mph - 0.04 in   Overcast
8:03 AM 42.8 °F 36.6 °F 39.2 °F 87% 30.08 in 10.0 mi NW 11.5 mph - 0.00 in Rain Light Rain
8:53 AM 39.9 °F 33.4 °F 37.0 °F 89% 30.10 in 10.0 mi NNW 10.4 mph - 0.00 in Rain Light Rain
9:53 AM 39.0 °F 34.0 °F 36.0 °F 89% 30.12 in 10.0 mi NNW 6.9 mph - 0.01 in Rain Light Rain
10:53 AM 37.9 °F 32.1 °F 35.1 °F 89% 30.12 in 10.0 mi North 8.1 mph - 0.00 in   Overcast
11:53 AM 37.0 °F 29.3 °F 34.0 °F 89% 30.12 in 5.0 mi NNW 11.5 mph - N/A   Overcast
12:53 PM 37.0 °F 31.0 °F 34.0 °F 89% 30.09 in 4.0 mi North 8.1 mph - 0.03 in Rain Light Rain
1:53 PM 37.0 °F 29.3 °F 34.0 °F 89% 30.06 in 5.0 mi North 11.5 mph - 0.03 in Rain Light Rain
2:53 PM 37.0 °F 31.0 °F 34.0 °F 89% 30.07 in 7.0 mi North 8.1 mph - 0.04 in Rain Light Rain
3:53 PM 36.0 °F 27.5 °F 33.1 °F 89% 30.10 in 6.0 mi NNW 12.7 mph 21.9 mph 0.00 in   Overcast
4:53 PM 36.0 °F 26.7 °F 33.1 °F 89% 30.10 in 5.0 mi North 15.0 mph 24.2 mph 0.06 in Rain Light Rain
5:53 PM 35.1 °F 25.9 °F 32.0 °F 89% 30.09 in 10.0 mi NNE 13.8 mph 23.0 mph 0.22 in Rain Light Rain
6:53 PM 35.1 °F 26.9 °F 32.0 °F 89% 30.09 in 3.0 mi North 11.5 mph - 0.17 in Rain Heavy Rain
7:53 PM 34.0 °F 24.6 °F 32.0 °F 92% 30.06 in 5.0 mi NE 13.8 mph - 0.25 in Rain Rain
8:53 PM 35.1 °F 27.9 °F 32.0 °F 89% 30.12 in 3.0 mi North 9.2 mph - 0.07 in Rain Light Rain
9:05 PM 33.8 °F 26.4 °F 32.0 °F 93% 30.09 in 2.5 mi North 9.2 mph - 0.06 in Rain Heavy Rain
9:18 PM 33.8 °F 25.3 °F 32.0 °F 93% 30.08 in 4.0 mi North 11.5 mph - 0.14 in Rain Rain
9:53 PM 34.0 °F 25.5 °F 32.0 °F 92% 30.08 in 4.0 mi NNE 11.5 mph - 0.26 in Rain Rain
10:53 PM 34.0 °F 24.6 °F 30.9 °F 89% 30.04 in 4.0 mi North 13.8 mph - 0.24 in Rain Rain
11:53 PM 34.0 °F 24.6 °F 30.9 °F 89% 30.06 in 10.0 mi North 13.8 mph - 0.10 in Rain Light Rain